TOURFACTS.DK  
Stats and Facts from Tour de France.

Tour de France 2018 starts in 315 days
  Riders   Stages   Teams   Summits   Yearly  


 
Search by year

 2017 - St. 21:  14824 starters.
  5131 different riders.
  634 teams.
  2232 stages.
  454 restdays.
  439589.60 km.
  5653 abandonnees.


Top 3
Christopher Froome86:20:55
Rigoberto Uran86:21:49
Romain Bardet86:23:15
Warren Barguil169 pt.
Primoz Roglic80 pt.
Thomas De Gendt64 pt.
Michael Matthews359 pt.
André Greipel234 pt.
Edvald Boasson Hagen220 pt.
Simon Yates86:27:09
Louis Meintjes86:29:15
Emanuel Buchmann86:54:16
Facts from Tour de France 2014
  |   Stages.  |   Stage winners.  |   Days in yellow  |   Average speed.  |   Route.  |   Teams.  |   All riders.  |   Rookies.  |   Withdrawls.  |  

  |   GC.  |   Polka  |   Green  |   White  |   Summits. (In tour)  |   Summits. (Points)  |   Miscellaneous.  |  

Stage 20 on 26 - 07 - 2014
         Owning:    Vincenzo Nibali      Rafal Majka      Peter Sagan      Thibaut Pinot  

Pick a stage:  1 2 3 4 5 6 7 8 9 10 11 12 13 14 15 16 17 18 19 20 21
  BergeracPérigueux | Dist: 54.00 km.

Average speed for all riders in stage:  44,212 km./hr.
    Place:Name:Team:Time:Km/h:
GERTony MartinBELOmega Pharma – Quick Step01:06:21  +  00:00:00=48,832 
NEDTom DumoulinNLDTeam Giant - Shimano01:08:00  +  00:01:39=47,647 
CZEJan BártaDEUTeam NetApp – Endura01:08:08  +  00:01:47=47,554 
4 ITAVincenzo NibaliKAZAstana Pro Team01:08:19  +  00:01:58=47,426 
5 CZELeopold KönigDEUTeam NetApp – Endura01:08:23  +  00:02:02=47,380 
6 USATejay Van GarderenUSABMC Racing Team01:08:29  +  00:02:08=47,311 
7 FRAJean-Christophe PeraudFRAAg2r La Mondiale01:08:48  +  00:02:27=47,093 
8 FRASylvain ChavanelCHEIAM Cycling01:08:57  +  00:02:36=46,991 
9 ESPMarkel IrizarUSATrek Factory Racing01:09:00  +  00:02:39=46,957 
10 ITADaniel OssUSABMC Racing Team01:09:19  +  00:02:58=46,742 
11 USADanny PateGBRSky Procycling01:09:22  +  00:03:01=46,708 
12 FRAThibaut PinotFRAFDJ.fr01:09:33  +  00:03:12=46,585 
13 SUIMartin ElmigerCHEIAM Cycling01:09:33  +  00:03:12=46,585 
14 POLMaciej BodnarITACannondale Pro Cycling01:09:34  +  00:03:13=46,574 
15 CANSvein TuftAUSOrica - GreenEDGE01:09:44  +  00:03:23=46,463 
16 SVKPeter VelitsUSABMC Racing Team01:09:45  +  00:03:24=46,452 
17 PORNelson OliveiraITALampre-Merida01:09:51  +  00:03:30=46,385 
18 URSTanel KangertKAZAstana Pro Team01:09:56  +  00:03:35=46,330 
19 AUSLuke DurbridgeAUSOrica - GreenEDGE01:09:59  +  00:03:38=46,297 
20 NEDLieuwe WestraKAZAstana Pro Team01:10:05  +  00:03:44=46,231 
21 ESPHaimar ZubeldiaUSATrek Factory Racing01:10:06  +  00:03:45=46,220 
22 ESPJon Izaguirre InsaustiESPMovistar Team01:10:21  +  00:04:00=46,055 
23 UKRAndriy GrivkoKAZAstana Pro Team01:10:26  +  00:04:05=46,001 
24 URSGatis SmukulisRUSTeam Katusha01:10:27  +  00:04:06=45,990 
25 ITAGiovanni ViscontiESPMovistar Team01:10:36  +  00:04:15=45,892 
26 FRARomain BardetFRAAg2r La Mondiale01:10:38  +  00:04:17=45,871 
27 PORJosé João PimentaDEUTeam NetApp – Endura01:10:44  +  00:04:23=45,806 
28 ESPAlejandro ValverdeESPMovistar Team01:10:49  +  00:04:28=45,752 
29 FRAJérémy RoyFRAFDJ.fr01:10:51  +  00:04:30=45,730 
30 ESPJesus HerradaESPMovistar Team01:10:52  +  00:04:31=45,720 
31 URSRein TaaramäeFRACofidis – Solutions Crédits01:11:02  +  00:04:41=45,612 
32 ESPImanol ErvitiESPMovistar Team01:11:05  +  00:04:44=45,580 
33 KAZDmitriy GruzdevKAZAstana Pro Team01:11:17  +  00:04:56=45,452 
34 WALGeraint ThomasGBRSky Procycling01:11:22  +  00:05:01=45,399 
35 FRAFlorian VachonFRABretagne - Séché Environnement01:11:27  +  00:05:06=45,346 
36 BELJohan VansummerenUSAGarmin Sharp01:11:32  +  00:05:11=45,294 
37 FRAMatthieu LadagnousFRAFDJ.fr01:11:34  +  00:05:13=45,272 
38 RUSVladimir IsaichevRUSTeam Katusha01:11:34  +  00:05:13=45,272 
39 FRAAnthony DelaplaceFRABretagne - Séché Environnement01:11:37  +  00:05:16=45,241 
40 ESPBeñat IntxaustiESPMovistar Team01:11:37  +  00:05:16=45,241 
41 USABenjamin KingUSAGarmin Sharp01:11:39  +  00:05:18=45,220 
42 POLBartosz HuzarskiDEUTeam NetApp – Endura01:11:40  +  00:05:19=45,209 
43 FRAAdrien PetitFRACofidis – Solutions Crédits01:11:46  +  00:05:25=45,146 
44 FRATony GallopinBELLotto-Belisol Team01:11:52  +  00:05:31=45,083 
45 FRACyril LemoineFRACofidis – Solutions Crédits01:11:55  +  00:05:34=45,052 
46 NEDSteven KruijswijkNLDBelkin Pro Cycling01:12:04  +  00:05:43=44,958 
47 GERPaul VossDEUTeam NetApp – Endura01:12:08  +  00:05:47=44,917 
48 COLJosé SerpaITALampre-Merida01:12:09  +  00:05:48=44,906 
49 PORTiago PintoDEUTeam NetApp – Endura01:12:11  +  00:05:50=44,886 
50 PORSergio PaulinhoRUSTinkoff Saxo01:12:20  +  00:05:59=44,793 
51 FRAPerrig QuemeneurFRATeam Europcar01:12:20  +  00:05:59=44,793 
52 BELJurgen Van Den BroeckBELLotto-Belisol Team01:12:22  +  00:06:01=44,772 
53 POLMichal KwiatkowskiBELOmega Pharma – Quick Step01:12:23  +  00:06:02=44,762 
54 FRAChristophe RiblonFRAAg2r La Mondiale01:12:23  +  00:06:02=44,762 
55 NEDLaurens ten DamNLDBelkin Pro Cycling01:12:24  +  00:06:03=44,751 
56 BELJens KeukeleireAUSOrica - GreenEDGE01:12:29  +  00:06:08=44,700 
57 GERAndreas SchillingerDEUTeam NetApp – Endura01:12:30  +  00:06:09=44,690 
58 POLRafal MajkaRUSTinkoff Saxo01:12:31  +  00:06:10=44,679 
59 ESPLuis Angel MateFRACofidis – Solutions Crédits01:12:31  +  00:06:10=44,679 
60 FRAJérôme PineauCHEIAM Cycling01:12:32  +  00:06:11=44,669 
61 SUIMichael AlbasiniAUSOrica - GreenEDGE01:12:35  +  00:06:14=44,638 
62 RUSYury TrofimovRUSTeam Katusha01:12:39  +  00:06:18=44,597 
63 FRAArnaud GérardFRABretagne - Séché Environnement01:12:39  +  00:06:18=44,597 
64 BELGreg Van AvermaetUSABMC Racing Team01:12:42  +  00:06:21=44,567 
65 LUXFränk SchleckUSATrek Factory Racing01:12:43  +  00:06:22=44,556 
66 DENLars BakBELLotto-Belisol Team01:12:43  +  00:06:22=44,556 
67 SUIMarcel WyssCHEIAM Cycling01:12:50  +  00:06:29=44,485 
68 SVKPeter SaganITACannondale Pro Cycling01:12:52  +  00:06:31=44,465 
69 FRABryan CoquardFRATeam Europcar01:12:54  +  00:06:33=44,444 
70 ITAMichele ScarponiKAZAstana Pro Team01:12:58  +  00:06:37=44,404 
71 FRAMickael DelageFRAFDJ.fr01:13:00  +  00:06:39=44,384 
72 AUSRichie PorteGBRSky Procycling01:13:02  +  00:06:41=44,363 
73 FRAArnaud DémareFRAFDJ.fr01:13:05  +  00:06:44=44,333 
74 FRANicolas EdetFRACofidis – Solutions Crédits01:13:13  +  00:06:52=44,252 
75 BELJan BakelantsBELOmega Pharma – Quick Step01:13:24  +  00:07:03=44,142 
76 ITAMatteo TrentinBELOmega Pharma – Quick Step01:13:25  +  00:07:04=44,132 
77 ESPMikel NieveGBRSky Procycling01:13:25  +  00:07:04=44,132 
78 AUSMichael RogersRUSTinkoff Saxo01:13:26  +  00:07:05=44,122 
79 AUSZakkari DempsterDEUTeam NetApp – Endura01:13:31  +  00:07:10=44,072 
80 NEDLars BoomNLDBelkin Pro Cycling01:13:32  +  00:07:11=44,062 
81 NEDKoen De KortNLDTeam Giant - Shimano01:13:33  +  00:07:12=44,052 
82 BELJürgen RoelandtsBELLotto-Belisol Team01:13:35  +  00:07:14=44,032 
83 JPNChristopher HornerITALampre-Merida01:13:37  +  00:07:16=44,012 
84 ITAMarco MarcatoITACannondale Pro Cycling01:13:39  +  00:07:18=43,992 
85 LUXBen GastauerFRAAg2r La Mondiale01:13:39  +  00:07:18=43,992 
86 FRABrice FeilluFRABretagne - Séché Environnement01:13:42  +  00:07:21=43,962 
87 NORAlexander KristoffRUSTeam Katusha01:13:44  +  00:07:23=43,942 
88 FRAAlexandre PichotFRATeam Europcar01:13:44  +  00:07:23=43,942 
89 GERRoger KlugeCHEIAM Cycling01:13:47  +  00:07:26=43,912 
90 FRAPierre RollandFRATeam Europcar01:13:47  +  00:07:26=43,912 
91 SUIMichael SchärUSABMC Racing Team01:13:48  +  00:07:27=43,902 
92 GERJohn DegenkolbNLDTeam Giant - Shimano01:13:49  +  00:07:28=43,893 
93 POLMichal GolasBELOmega Pharma – Quick Step01:13:50  +  00:07:29=43,883 
94 FRAKévin RezaFRATeam Europcar01:13:51  +  00:07:30=43,873 
95 FRAWilliam BonnetFRAFDJ.fr01:13:53  +  00:07:32=43,853 
96 GERMarcel SiebergBELLotto-Belisol Team01:13:54  +  00:07:33=43,843 
97 FRANicolas RocheRUSTinkoff Saxo01:13:55  +  00:07:34=43,833 
98 AUSAdam HansenBELLotto-Belisol Team01:13:57  +  00:07:36=43,813 
99 FRAArnold JeannessonFRAFDJ.fr01:13:57  +  00:07:36=43,813 
100 FRARudy MolardFRACofidis – Solutions Crédits01:13:58  +  00:07:37=43,804 
101 FRABenoît JarrierFRABretagne - Séché Environnement01:14:01  +  00:07:40=43,774 
102 NEDAlbert TimmerNLDTeam Giant - Shimano01:14:02  +  00:07:41=43,764 
103 USAPeter StetinaUSABMC Racing Team01:14:03  +  00:07:42=43,754 
104 ITAMatteo MontagutiFRAAg2r La Mondiale01:14:04  +  00:07:43=43,744 
105 FRAAmaël MoinardUSABMC Racing Team01:14:06  +  00:07:45=43,725 
106 FRAJohn GadretESPMovistar Team01:14:08  +  00:07:47=43,705 
107 ITADaniele BennatiRUSTinkoff Saxo01:14:09  +  00:07:48=43,695 
108 ESPRubén PlazaESPMovistar Team01:14:11  +  00:07:50=43,676 
109 JPNYukiya ArashiroFRATeam Europcar01:14:15  +  00:07:54=43,636 
110 CANChristian MeierAUSOrica - GreenEDGE01:14:17  +  00:07:56=43,617 
111 NZLJack BauerUSAGarmin Sharp01:14:18  +  00:07:57=43,607 
112 SUISébastien ReichenbachCHEIAM Cycling01:14:20  +  00:07:59=43,587 
113 AUTBernhard EiselGBRSky Procycling01:14:26  +  00:08:05=43,529 
114 HRVKristijan DurasekITALampre-Merida01:14:27  +  00:08:06=43,519 
115 ITAMatteo TosattoRUSTinkoff Saxo01:14:31  +  00:08:10=43,480 
116 SLOKristjan KorenITACannondale Pro Cycling01:14:35  +  00:08:14=43,441 
117 FRAFlorian GuillouFRABretagne - Séché Environnement01:14:39  +  00:08:18=43,403 
118 NEDTom-Jelte SlagterUSAGarmin Sharp01:14:41  +  00:08:20=43,383 
119 NEDBram TankinkNLDBelkin Pro Cycling01:14:49  +  00:08:28=43,306 
120 FRACyril GautierFRATeam Europcar01:14:55  +  00:08:34=43,248 
121 NEDTom VeelersNLDTeam Giant - Shimano01:15:02  +  00:08:41=43,181 
122 FRASébastien MinardFRAAg2r La Mondiale01:15:02  +  00:08:41=43,181 
123 URSRamunas NavardauskasUSAGarmin Sharp01:15:03  +  00:08:42=43,171 
124 FRAYohann GèneFRATeam Europcar01:15:12  +  00:08:51=43,085 
125 SUIJakob FuglsangKAZAstana Pro Team01:15:14  +  00:08:53=43,066 
126 FRAJulien SimonFRACofidis – Solutions Crédits01:15:16  +  00:08:55=43,047 
127 ITAAlessandro PetacchiBELOmega Pharma – Quick Step01:15:16  +  00:08:55=43,047 
128 DENMichael MørkøvRUSTinkoff Saxo01:15:16  +  00:08:55=43,047 
129 ITADavide CimolaiITALampre-Merida01:15:17  +  00:08:56=43,037 
130 GERAndré GreipelBELLotto-Belisol Team01:15:20  +  00:08:59=43,009 
131 NEDNiki TerpstraBELOmega Pharma – Quick Step01:15:26  +  00:09:05=42,952 
132 BLRVasil KiryienkaGBRSky Procycling01:15:34  +  00:09:13=42,876 
133 KAZMaxim IglinskiyKAZAstana Pro Team01:15:35  +  00:09:14=42,867 
134 BELSep VanmarckeNLDBelkin Pro Cycling01:15:35  +  00:09:14=42,867 
135 FRACédric PineauFRAFDJ.fr01:15:36  +  00:09:15=42,857 
136 AUSSimon ClarkeAUSOrica - GreenEDGE01:15:37  +  00:09:16=42,848 
137 FRAJean-Marc BideauFRABretagne - Séché Environnement01:15:39  +  00:09:18=42,829 
138 NEDRoy CurversNLDTeam Giant - Shimano01:15:40  +  00:09:19=42,819 
139 NEDSebastian LangeveldUSAGarmin Sharp01:15:42  +  00:09:21=42,801 
140 NEDBauke MollemaNLDBelkin Pro Cycling01:15:47  +  00:09:26=42,753 
141 FRAArmindo FonsecaFRABretagne - Séché Environnement01:15:49  +  00:09:28=42,735 
142 ITAAlessandro De MarchiITACannondale Pro Cycling01:15:51  +  00:09:30=42,716 
143 ESPJoaquim RodriguezRUSTeam Katusha01:15:52  +  00:09:31=42,707 
144 GERJens VoigtUSATrek Factory Racing01:15:53  +  00:09:32=42,697 
145 GERMarcel KittelNLDTeam Giant - Shimano01:15:54  +  00:09:33=42,688 
146 ITAFabio SabatiniITACannondale Pro Cycling01:15:54  +  00:09:33=42,688 
147 USAMatthew BuscheUSATrek Factory Racing01:16:02  +  00:09:41=42,613 
148 FRAJean-Marc MarinoITACannondale Pro Cycling01:16:04  +  00:09:43=42,594 
149 SUIGregory RastUSATrek Factory Racing01:16:11  +  00:09:50=42,529 
150 AUSMark RenshawBELOmega Pharma – Quick Step01:16:11  +  00:09:50=42,529 
151 NEDTom LeezerNLDBelkin Pro Cycling01:16:14  +  00:09:53=42,501 
152 ESPDavid LopezGBRSky Procycling01:16:14  +  00:09:53=42,501 
153 ITAElia VivianiITACannondale Pro Cycling01:16:17  +  00:09:56=42,473 
154 BELMaarten WynantsNLDBelkin Pro Cycling01:16:17  +  00:09:56=42,473 
155 FRABlel KadriFRAAg2r La Mondiale01:16:36  +  00:10:15=42,298 
156 FRARomain FeilluFRABretagne - Séché Environnement01:16:54  +  00:10:33=42,133 
157 FRASamuel DumoulinFRAAg2r La Mondiale01:16:57  +  00:10:36=42,105 
158 FRAThomas VoecklerFRATeam Europcar01:17:09  +  00:10:48=41,996 
159 GERMarcus BurghardtUSABMC Racing Team01:17:21  +  00:11:00=41,888 
160 ITAAlessandro VanottiKAZAstana Pro Team01:18:01  +  00:11:40=41,530 
161 USAAlex HowesUSAGarmin Sharp01:18:04  +  00:11:43=41,503 
162 CHNCheng JiNLDTeam Giant - Shimano01:18:32  +  00:12:11=41,256 
163 FRAMickaël CherelFRAAg2r La Mondiale01:18:40  +  00:12:19=41,186 
164 ITALuca PaoliniRUSTeam Katusha01:18:49  +  00:12:28=41,108 


Todays birthdays.

1888  Alfred Vaidis
1940  Sandro Cervellini
1940  Romano Piancastelli
1942  Eraldo Bocci
1947  Roger De Vlaeminck
1968  Antonio Dias
1969  Jans Koerts
1972  Francesco Secchiari
1988  Romain Hardy